Weather History for Bentonville, AR

Change the Weather History Date:

Sunday, January 5, 2014

  Actual Average Record
Temperature  
Mean Temperature 22 °F -  
Max Temperature 37 °F 42 °F 70 °F (1956)
Min Temperature 6 °F 20 °F -3 °F (1972)
Degree Days  
Heating Degree Days 44    
Moisture  
Dew Point 11 °F    
Average Humidity 72    
Maximum Humidity 93    
Minimum Humidity 52    
Precipitation  
Precipitation 0.11 in - - ()
Sea Level Pressure  
Sea Level Pressure 30.07 in    
Wind  
Wind Speed 13 mph (North)    
Max Wind Speed 24 mph    
Max Gust Speed 32 mph    
Visibility 6 miles    
Events      
Averages and records for this station are not official NWS values.
T = Trace of Precipitation, MM = Missing Value Source: NWS Daily Summary

Daily Weather History Graph

Daily Weather History Graph

Search for Another Location

Airport:

Trip Planner

Search our weather history database for the weather conditions in past years. The results will help you decide how hot, cold, wet, or windy it might be!

Date:

Astronomy

Jan. 05, 2014 Rise Set
Actual Time 7:28 AM CST 5:16 PM CST
Civil Twilight 7:00 AM CST 5:44 PM CST
Nautical Twilight 6:28 AM CST 6:16 PM CST
Astronomical Twilight 5:57 AM CST 6:47 PM CST
Moon 10:19 AM CST (1/5) 10:34 PM CST (1/5)
Length of Visible Light 10h 44m
Length of Day
9h 47m
Waxing Crescent, 25% of the Moon is Illuminated
Jan 5
Waxing Crescent
Jan 7
First Quarter
Jan 15
Full
Jan 23
Last Quarter
Jan 30
New

Hourly Weather History & Observations

Time (CST) Temp. Windchill Dew Point Humidity Pressure Visibility Wind Dir Wind Speed Gust Speed Precip Events Conditions
12:15 AM 37.4 °F 32.8 °F 33.8 °F 87% 29.81 in 4.0 mi North 5.8 mph - N/A   Overcast
12:35 AM 37.4 °F 30.8 °F 33.8 °F 87% 29.81 in 3.0 mi North 9.2 mph - N/A   Overcast
12:55 AM 37.4 °F 30.8 °F 33.8 °F 87% 29.80 in 3.0 mi NNE 9.2 mph - N/A   Overcast
1:15 AM 37.4 °F 29.8 °F 33.8 °F 87% 29.78 in 3.0 mi NNE 11.5 mph 17.3 mph N/A   Overcast
1:35 AM 37.4 °F 31.4 °F 33.8 °F 87% 29.77 in 2.0 mi NE 8.1 mph - N/A   Overcast
1:55 AM 37.4 °F 30.3 °F 33.8 °F 87% 29.76 in 2.5 mi NE 10.4 mph - N/A   Overcast
2:15 AM 35.6 °F 27.5 °F 33.8 °F 93% 29.78 in 2.5 mi North 11.5 mph - 0.01 in   Overcast
2:35 AM 35.6 °F 29.2 °F 32.0 °F 87% 29.79 in 3.0 mi North 8.1 mph - 0.05 in   Overcast
2:55 AM 35.6 °F 26.6 °F 32.0 °F 87% 29.79 in 3.0 mi North 13.8 mph - 0.05 in   Overcast
3:15 AM 32.0 °F 21.6 °F 28.4 °F 87% 29.79 in 5.0 mi North 15.0 mph 21.9 mph 0.02 in   Overcast
3:35 AM 30.2 °F 18.5 °F 26.6 °F 86% 29.80 in 4.0 mi North 17.3 mph 20.7 mph 0.04 in   Overcast
3:55 AM 28.4 °F 17.0 °F 24.8 °F 86% 29.81 in 4.0 mi North 15.0 mph 26.5 mph 0.04 in   Overcast
4:15 AM 26.6 °F 14.3 °F 21.2 °F 80% 29.81 in 4.0 mi North 16.1 mph 23.0 mph N/A   Overcast
4:35 AM 26.6 °F 14.7 °F 21.2 °F 80% 29.81 in 5.0 mi North 15.0 mph 21.9 mph 0.01 in   Overcast
4:55 AM 24.8 °F 9.3 °F 19.4 °F 80% 29.81 in 4.0 mi North 24.2 mph 32.2 mph 0.01 in   Overcast
5:15 AM 23.0 °F 8.3 °F 19.4 °F 86% 29.81 in 2.0 mi North 19.6 mph 26.5 mph 0.01 in   Overcast
5:35 AM 21.2 °F 6.8 °F 17.6 °F 86% 29.83 in 3.0 mi North 17.3 mph 26.5 mph 0.01 in   Overcast
5:55 AM 21.2 °F 7.3 °F 17.6 °F 86% 29.85 in 2.0 mi North 16.1 mph 21.9 mph 0.01 in   Overcast
6:15 AM 21.2 °F 8.9 °F 15.8 °F 80% 29.85 in 1.0 mi North 12.7 mph - N/A   Overcast
6:35 AM 19.4 °F 5.0 °F 14.0 °F 80% 29.87 in 1.5 mi North 16.1 mph 25.3 mph N/A   Overcast
6:55 AM 19.4 °F 3.2 °F 14.0 °F 80% 29.88 in 0.8 mi North 20.7 mph 24.2 mph N/A   Overcast
7:15 AM 19.4 °F 6.0 °F 14.0 °F 80% 29.89 in 1.0 mi North 13.8 mph 18.4 mph N/A   Overcast
7:35 AM 17.6 °F 1.7 °F 12.2 °F 79% 29.90 in 1.2 mi North 18.4 mph 26.5 mph N/A   Overcast
7:55 AM 17.6 °F 5.0 °F 12.2 °F 79% 29.90 in 1.0 mi North 11.5 mph 23.0 mph N/A   Overcast
8:15 AM 17.6 °F 5.0 °F 12.2 °F 79% 29.93 in 1.0 mi North 11.5 mph 24.2 mph N/A   Overcast
8:35 AM 17.6 °F 2.7 °F 10.4 °F 73% 29.95 in 0.8 mi North 16.1 mph 26.5 mph N/A   Overcast
8:55 AM 15.8 °F -0.6 °F 10.4 °F 79% 29.95 in 1.5 mi NNW 18.4 mph 25.3 mph N/A   Overcast
9:15 AM 15.8 °F 0.9 °F 10.4 °F 79% 29.98 in 3.0 mi North 15.0 mph 23.0 mph N/A   Overcast
9:35 AM 15.8 °F 0.3 °F 10.4 °F 79% 29.99 in 1.8 mi North 16.1 mph 24.2 mph N/A   Overcast
9:55 AM 15.8 °F 2.1 °F 10.4 °F 79% 30.00 in 1.2 mi North 12.7 mph 21.9 mph N/A   Overcast
10:15 AM 15.8 °F 0.3 °F 10.4 °F 79% 30.02 in 1.8 mi North 16.1 mph 23.0 mph N/A   Overcast
10:35 AM 15.8 °F 0.9 °F 8.6 °F 73% 30.02 in 2.0 mi North 15.0 mph 24.2 mph N/A   Overcast
10:55 AM 15.8 °F 0.9 °F 8.6 °F 73% 30.03 in 2.5 mi North 15.0 mph 27.6 mph N/A   Overcast
11:15 AM 15.8 °F 0.3 °F 8.6 °F 73% 30.03 in 2.5 mi NNW 16.1 mph 25.3 mph N/A   Mostly Cloudy
11:35 AM 15.8 °F -1.5 °F 8.6 °F 73% 30.04 in 2.5 mi North 20.7 mph 27.6 mph N/A   Overcast
11:55 AM 15.8 °F 1.4 °F 8.6 °F 73% 30.04 in 3.0 mi North 13.8 mph - N/A   Overcast
12:15 PM 15.8 °F -0.6 °F 8.6 °F 73% 30.04 in 3.0 mi NNW 18.4 mph 23.0 mph N/A   Overcast
12:35 PM 15.8 °F 1.4 °F 8.6 °F 73% 30.04 in 5.0 mi NNW 13.8 mph 20.7 mph N/A   Overcast
12:55 PM 17.6 °F 2.2 °F 10.4 °F 73% 30.04 in 5.0 mi NNW 17.3 mph 25.3 mph N/A   Overcast
1:15 PM 17.6 °F 2.2 °F 8.6 °F 68% 30.05 in 9.0 mi NNW 17.3 mph 24.2 mph N/A   Overcast
1:35 PM 17.6 °F 5.7 °F 8.6 °F 68% 30.07 in 7.0 mi NNW 10.4 mph 18.4 mph N/A   Overcast
1:55 PM 17.6 °F 2.2 °F 8.6 °F 68% 30.08 in 4.0 mi North 17.3 mph 20.7 mph N/A   Overcast
2:15 PM 17.6 °F 4.3 °F 8.6 °F 68% 30.09 in 6.0 mi NNW 12.7 mph 26.5 mph N/A   Overcast
2:35 PM 17.6 °F 5.0 °F 8.6 °F 68% 30.12 in 5.0 mi NNW 11.5 mph - N/A   Overcast
2:55 PM 15.8 °F 0.9 °F 8.6 °F 73% 30.13 in 5.0 mi North 15.0 mph 26.5 mph N/A   Overcast
3:15 PM 15.8 °F 0.9 °F 8.6 °F 73% 30.15 in 5.0 mi NNW 15.0 mph 18.4 mph N/A   Overcast
3:35 PM 15.8 °F 1.4 °F 8.6 °F 73% 30.17 in 7.0 mi NNW 13.8 mph 23.0 mph N/A   Overcast
3:55 PM 15.8 °F 2.7 °F 6.8 °F 68% 30.18 in 10.0 mi NNW 11.5 mph 20.7 mph N/A   Overcast
4:15 PM 15.8 °F 1.4 °F 6.8 °F 68% 30.20 in 10.0 mi NNW 13.8 mph 24.2 mph N/A   Overcast
4:35 PM 15.8 °F 1.4 °F 6.8 °F 68% 30.21 in 8.0 mi NNW 13.8 mph 20.7 mph N/A   Overcast
4:55 PM 15.8 °F 3.4 °F 5.0 °F 62% 30.23 in 10.0 mi NNW 10.4 mph 19.6 mph N/A   Overcast
5:15 PM 14.0 °F -1.4 °F 3.2 °F 62% 30.25 in 10.0 mi NNW 15.0 mph 18.4 mph N/A   Overcast
5:35 PM 14.0 °F -3.4 °F 3.2 °F 62% 30.27 in 10.0 mi North 19.6 mph 23.0 mph N/A   Scattered Clouds
5:55 PM 12.2 °F -1.0 °F 3.2 °F 67% 30.29 in 10.0 mi NNW 10.4 mph 18.4 mph N/A   Partly Cloudy
6:15 PM 12.2 °F -3.1 °F 1.4 °F 62% 30.30 in 10.0 mi NNW 13.8 mph 23.0 mph N/A   Clear
6:35 PM 10.4 °F -4.1 °F -0.4 °F 62% 30.32 in 10.0 mi NNW 11.5 mph 21.9 mph N/A   Clear
6:55 PM 10.4 °F -6.0 °F -0.4 °F 62% 30.33 in 10.0 mi North 15.0 mph - N/A   Clear
7:15 PM 10.4 °F -5.4 °F -2.2 °F 57% 30.34 in 10.0 mi North 13.8 mph 21.9 mph N/A   Clear
7:35 PM 10.4 °F -6.0 °F -2.2 °F 57% 30.36 in 10.0 mi North 15.0 mph - N/A   Clear
7:55 PM 10.4 °F -6.0 °F -2.2 °F 57% 30.37 in 10.0 mi North 15.0 mph 20.7 mph N/A   Clear
8:15 PM 10.4 °F -6.0 °F -2.2 °F 57% 30.39 in 10.0 mi North 15.0 mph 20.7 mph N/A   Mostly Cloudy
8:35 PM 10.4 °F -5.4 °F -2.2 °F 57% 30.40 in 10.0 mi North 13.8 mph 21.9 mph N/A   Overcast
8:55 PM 8.6 °F -3.7 °F -2.2 °F 62% 30.40 in 10.0 mi North 8.1 mph - N/A   Mostly Cloudy
9:15 PM 8.6 °F -4.7 °F -4.0 °F 57% 30.41 in 10.0 mi NNW 9.2 mph - N/A   Clear
9:35 PM 8.6 °F -6.3 °F -4.0 °F 57% 30.42 in 10.0 mi North 11.5 mph - N/A   Clear
9:55 PM 8.6 °F -6.3 °F -5.8 °F 52% 30.43 in 10.0 mi North 11.5 mph 17.3 mph N/A   Clear
10:15 PM 8.6 °F -6.3 °F -5.8 °F 52% 30.43 in 10.0 mi North 11.5 mph 16.1 mph N/A   Partly Cloudy
10:35 PM 8.6 °F -5.5 °F -4.0 °F 57% 30.43 in 10.0 mi North 10.4 mph - N/A   Mostly Cloudy
10:55 PM 8.6 °F -5.5 °F -5.8 °F 52% 30.44 in 10.0 mi NNW 10.4 mph - N/A   Mostly Cloudy
11:15 PM 8.6 °F -6.3 °F -5.8 °F 52% 30.43 in 10.0 mi North 11.5 mph 16.1 mph N/A   Scattered Clouds
11:35 PM 6.8 °F -5.9 °F -5.8 °F 56% 30.43 in 10.0 mi North 8.1 mph - N/A   Clear
11:55 PM 6.8 °F -0.1 °F -5.8 °F 56% 30.44 in 10.0 mi NNW 3.5 mph - N/A   Clear